Rogers, AR

12:10 AM CDT on October 23, 2017 (GMT -0500)
Rogers Municipal-Carter

Weather History for KROG - June, 2013

Change the Weather History Date:

Tuesday, June 4, 2013

  Actual Average Record
Temperature  
Mean Temperature 70 °F -  
Max Temperature 78 °F 76 °F 91 °F (2011)
Min Temperature 62 °F 59 °F 48 °F (2003)
Cooling Degree Days 5    
Growing Degree Days 20 (Base 50)    
Moisture  
Dew Point 61 °F    
Average Humidity 76    
Maximum Humidity 86    
Minimum Humidity 60    
Precipitation  
Precipitation 0.00 in - - ()
Sea Level Pressure  
Sea Level Pressure 29.95 in    
Wind  
Wind Speed 9 mph (ESE)    
Max Wind Speed 14 mph    
Max Gust Speed 20 mph    
Visibility 10 miles    
Events Rain    
Averages and records for this station are not official NWS values.
T = Trace of Precipitation, MM = Missing Value Source: NWS Daily Summary

Daily Weather History Graph

Daily Weather History Graph

Search for Another Location

Airport or City:

Trip Planner

Search our weather history database for the weather conditions in past years. The results will help you decide how hot, cold, wet, or windy it might be!

Date:

Astronomy

Jun. 04, 2013 Rise Set
Actual Time 5:59 AM CDT 8:30 PM CDT
Civil Twilight 5:29 AM CDT 9:00 PM CDT
Nautical Twilight 4:51 AM CDT 9:38 PM CDT
Astronomical Twilight 4:10 AM CDT 10:19 PM CDT
Moon 3:23 AM CDT (6/4) 5:05 PM CDT (6/4)
Length of Visible Light 15h 31m
Length of Day
14h 31m
Waning Crescent, 14% of the Moon is Illuminated
Jun 4
Waning Crescent
Jun 8
New
Jun 16
First Quarter
Jun 23
Full
Jun 29
Last Quarter

Hourly Weather History & Observations

Time (CDT) Temp. Dew Point Humidity Pressure Visibility Wind Dir Wind Speed Gust Speed Precip Events Conditions
12:57 AM 64.0 °F 57.9 °F 80% 29.96 in 10.0 mi ESE 9.2 mph - N/A   Clear
1:57 AM 64.0 °F 57.9 °F 80% 29.94 in 10.0 mi ESE 10.4 mph - N/A   Clear
2:57 AM 63.0 °F 57.9 °F 84% 29.93 in 10.0 mi ESE 10.4 mph - N/A   Clear
3:57 AM 63.0 °F 57.9 °F 84% 29.91 in 10.0 mi ESE 8.1 mph - N/A   Clear
4:57 AM 63.0 °F 57.9 °F 84% 29.95 in 10.0 mi SE 5.8 mph - N/A   Clear
5:57 AM 62.1 °F 57.9 °F 86% 29.94 in 10.0 mi East 9.2 mph - N/A   Clear
6:57 AM 63.0 °F 57.9 °F 84% 29.96 in 10.0 mi ESE 5.8 mph - N/A   Clear
7:57 AM 64.0 °F 59.0 °F 84% 30.00 in 10.0 mi West 3.5 mph - N/A   Clear
8:57 AM 66.0 °F 60.1 °F 81% 29.99 in 10.0 mi SSE 6.9 mph - N/A   Clear
9:57 AM 66.9 °F 60.1 °F 79% 29.98 in 10.0 mi SSE 11.5 mph - N/A   Clear
10:57 AM 68.0 °F 60.1 °F 76% 29.97 in 10.0 mi SE 11.5 mph - N/A   Partly Cloudy
11:57 AM 70.0 °F 61.0 °F 73% 29.96 in 10.0 mi ESE 10.4 mph - N/A   Partly Cloudy
12:57 PM 71.1 °F 61.0 °F 70% 29.96 in 10.0 mi East 9.2 mph - 0.00 in Rain Light Rain
1:57 PM 70.0 °F 62.1 °F 76% 29.95 in 10.0 mi East 8.1 mph - 0.00 in   Mostly Cloudy
2:57 PM 70.0 °F 63.0 °F 78% 29.94 in 10.0 mi East 6.9 mph - N/A   Overcast
3:57 PM 75.0 °F 64.9 °F 71% 29.93 in 10.0 mi ESE 13.8 mph 19.6 mph N/A   Scattered Clouds
4:57 PM 78.1 °F 64.9 °F 64% 29.91 in 10.0 mi ESE 12.7 mph - N/A   Clear
5:57 PM 78.1 °F 63.0 °F 60% 29.91 in 10.0 mi ESE 12.7 mph - N/A   Clear
6:57 PM 78.1 °F 63.0 °F 60% 29.91 in 10.0 mi ESE 10.4 mph - N/A   Clear
7:57 PM 75.9 °F 63.0 °F 64% 29.93 in 10.0 mi East 5.8 mph - N/A   Clear
8:57 PM 71.1 °F 63.0 °F 75% 29.94 in 10.0 mi ESE 4.6 mph - N/A   Partly Cloudy
9:57 PM 70.0 °F 62.1 °F 76% 29.96 in 10.0 mi East 6.9 mph - N/A   Mostly Cloudy
10:57 PM 68.0 °F 62.1 °F 81% 29.97 in 10.0 mi East 4.6 mph - N/A   Clear
11:57 PM 66.0 °F 61.0 °F 84% 29.97 in 10.0 mi East 5.8 mph - N/A   Clear